Regional Weather Roundup
Issued by NWS

Home | Current Version | Previous Version | Text Only | Print | Product List | Glossary On
Versions: 1 2 3 4 5 6 7 8 9 10 11 12 13 14 15 16 17 18 19 20 21 22 23 24 25 26 27 28 29 30 31 32 33 34 35 36 37 38 39 40 41 42 43 44 45 46 47 48 49 50
000
ASUS44 KOUN 220710
RWROK

WEATHER ROUNDUP FOR OKLAHOMA
NATIONAL WEATHER SERVICE NORMAN OK
200 AM CDT SUN APR 22 2018

NOTE: "FAIR" INDICATES FEW OR NO CLOUDS BELOW 12,000 FEET WITH NO
      SIGNIFICANT WEATHER AND/OR OBSTRUCTIONS TO VISIBILITY.

OKZ001>007-009>012-014-015-017-220800-
NORTHWEST OKLAHOMA AND THE PANHANDLE

CITY           SKY/WX    TMP DP  RH WIND       PRES   REMARKS
GAGE           CLOUDY    46  44  93 N7        30.16S
GUYMON         MOCLDY    41  41 100 N7        30.19F
ENID/WOODRING  CLOUDY    45  45 100 NW13      30.10F
$$

OKZ016-021>023-033>039-044-045-220800-
SOUTHWEST OKLAHOMA

CITY           SKY/WX    TMP DP  RH WIND       PRES   REMARKS
LAWTON/REGL    CLOUDY    50  45  83 N14       30.13R
LAWTON/FT SILL CLOUDY    50  47  92 N18       30.12R
FREDERICK      PTCLDY    48  45  89 N14       30.09F
CLINTON        CLOUDY    46  43  89 NW9       30.17R
HOBART         CLOUDY    48  43  82 N15       30.16S
ALTUS AFB      CLEAR     48  42  81 N12       30.13F
$$

OKZ018>020-024>031-220800-
CENTRAL OKLAHOMA

CITY           SKY/WX    TMP DP  RH WIND       PRES   REMARKS
OKLAHOMA CITY  CLOUDY    46  44  93 N21G26    30.09F
OKC/WILEY POST CLOUDY    47  45  93 N13       30.10F
OKC/TINKER AFB CLOUDY    46  46  99 N14       30.08S
STILLWATER     CLOUDY    46  44  93 NW9       30.09F
GUTHRIE        CLOUDY    46  44  93 MISG      30.11S
$$

OKZ008-013-054>072-220800-
NORTHEAST OKLAHOMA

CITY           SKY/WX    TMP DP  RH WIND       PRES   REMARKS
TULSA          LGT RAIN  48  47  96 NW10      30.04F FOG
TULSA/JONES    LGT RAIN  49  47  93 NW7       30.05F FOG
PONCA CITY     CLOUDY    46  43  89 N9        30.09F
BARTLESVILLE   CLOUDY    48  46  93 CALM      30.07F FOG
MUSKOGEE       LGT RAIN  50  50 100 NW13      30.02F
$$

OKZ032-040>043-046>053-073>077-220800-
SOUTH CENTRAL/SOUTHEAST OKLAHOMA

CITY           SKY/WX    TMP DP  RH WIND       PRES   REMARKS
ARDMORE/DWNTWN CLOUDY    50  46  87 NW5       30.08R
MCALESTER      CLOUDY    51  50  96 NW10      30.02F
$$




USA.gov is the U.S. government's official web portal to all federal, state and local government web resources and services.